This is the latest recevied weather packets stored in our database for station/object IZ5MJO-13. If no packets are shown the sender has not sent any weather packets the latest 10 day(s).
| Time | Temp. | Humidity | Pressure | Rain* | Wind** | Luminosity | Snow |
|---|---|---|---|---|---|---|---|
| 1777639420 | 21.67° C | 22% | 1012.9 hPa | - | - | - | - |
| 1777638520 | 21.11° C | 26% | 1012.9 hPa | - | - | - | - |
| 1777637619 | 21.11° C | 24% | 1013 hPa | - | - | - | - |
| 1777636719 | 21.11° C | 24% | 1013.1 hPa | - | - | - | - |
| 1777635819 | 20° C | 26% | 1013.2 hPa | - | - | - | - |
| 1777634919 | 20° C | 25% | 1013.2 hPa | - | - | - | - |
| 1777634019 | 20° C | 23% | 1013.5 hPa | - | - | - | - |
| 1777633118 | 19.44° C | 25% | 1013.4 hPa | - | - | - | - |
| 1777632218 | 18.33° C | 24% | 1013.5 hPa | - | - | - | - |
| 1777631318 | 17.78° C | 27% | 1013.6 hPa | - | - | - | - |
| 1777630418 | 17.22° C | 26% | 1013.7 hPa | - | - | - | - |
| 1777629518 | 16.67° C | 27% | 1013.9 hPa | - | - | - | - |
| 1777628616 | 16.67° C | 30% | 1014.1 hPa | - | - | - | - |
| 1777627716 | 16.67° C | 30% | 1014.3 hPa | - | - | - | - |
| 1777626815 | 16.11° C | 29% | 1014.2 hPa | - | - | - | - |
| 1777625915 | 15.56° C | 31% | 1014.2 hPa | - | - | - | - |
| 1777625015 | 15° C | 32% | 1014.2 hPa | - | - | - | - |
| 1777624114 | 15° C | 34% | 1014.1 hPa | - | - | - | - |
| 1777623218 | 14.44° C | 35% | 1013.9 hPa | - | - | - | - |
| 1777622318 | 13.89° C | 34% | 1013.4 hPa | - | - | - | - |
| 1777621417 | 13.89° C | 36% | 1013.4 hPa | - | - | - | - |
| 1777620517 | 13.33° C | 37% | 1013.6 hPa | - | - | - | - |
| 1777619617 | 12.78° C | 38% | 1013.7 hPa | - | - | - | - |
| 1777618717 | 12.22° C | 39% | 1013.5 hPa | - | - | - | - |
| 1777617817 | 11.67° C | 40% | 1013.3 hPa | - | - | - | - |
* Rain since midnight (hover to see other rain measurements)
** Current wind speed in m/s (hover to see current wind gust speed)